Torna al catalogo

STARLINK-35437

AttivoComunicazioniVLEO
NORAD 66563·PAYLOAD·🇺🇸 United States

Lanciato Nov 21, 2025 da Cape Canaveral Space Force Station

Loading…

Prossimi Passaggi (prossime 24 ore)

TLE

AggiornatoSource: CelesTrak SupGP

Epoca: Sep 15, 2026, 03:33 UTC

1 66563C 25268G   26258.14840278  .00044112  00000+0  15976-2 0  2585
2 66563  43.0036 357.0000 0001786 267.9094 183.2632 15.27558536    11

Traccia STARLINK-35437 in tempo reale con AllMySat

Download on the App Store